Back to catalog

PROBA V

AliveScienceSSO
NORAD 39159·PAYLOAD·🇪🇺 EU

Launched May 7, 2013 from Guiana Space Centre

Loading…

Next Passes (next 24 hours)

TLE

FreshSource: Space-Track

Epoch: Sep 14, 2026, 09:07 UTC

1 39159U 13021A   26257.38020659  .00000031  00000-0  31665-4 0  9998
2 39159  98.3702 231.6293 0003226 220.0981 139.9961 14.23612841693805

Track PROBA V in real time with AllMySat

Download on the App Store